Home   Weather   Sundsvall   Past weeks
Flag for Sweden

Past Weather in Sundsvall, Sweden — Yesterday and Last 2 Weeks

Now
39 °F

Sunny.


Feels Like: 39 °F
Forecast: 50 / 40 °F
Wind: No wind

Location: Sundsvall-Harnosand Flygplats

Current Time: Oct 23, 2019 at 10:30:54 am

Latest Report: Oct 23, 2019 at 9:50 am


Visibility: 10 mi

Pressure: 29.80 "Hg

Humidity: 87%

Dew Point: 36 °F

Location of SundsvallLocation

Past Weather in Sundsvall — Graph

°F

Sundsvall Temperature Yesterday

Maximum temperature yesterday: 48 °F (at 10:20 pm)
Minimum temperature yesterday: 37 °F (at 12:20 am)
Average temperature yesterday: 42 °F

High & Low Weather Summary for the Past Weeks

 TemperatureHumidityPressure
High48 °F (Oct 22, 10:20 pm)100% (Oct 8, 9:50 am)30.09 "Hg (Oct 8, 9:50 am)
Low30 °F (Oct 13, 9:50 pm)57% (Oct 22, 11:20 pm)29.24 "Hg (Oct 12, 1:50 am)
Average39 °F92%29.72 "Hg
* Reported Oct 8 9:20 am — Oct 23 9:20 am, Sundsvall. Weather by CustomWeather, © 2019

Note: Actual official high and low records may vary slightly from our data, if they occured in-between our weather recording intervals... More about our weather records

Advertising

Sundsvall Weather History for the Previous 24 Hours

Scroll right to see more
 ConditionsComfort  
Time TempWeatherWind HumidityBarometerVisibility
9:20 am
Wed, Oct 23
39 °FSunny.2 mph81%29.80 "Hg10 mi
8:50 am41 °FSunny.5 mph76%29.80 "Hg10 mi
8:20 am43 °FSunny.5 mph66%29.77 "Hg10 mi
7:50 am43 °FPassing clouds.9 mph71%29.77 "HgN/A
7:20 am41 °FClear.7 mph76%29.74 "Hg10 mi
6:50 am41 °FPassing clouds.5 mph76%29.77 "HgN/A
6:20 am39 °FClear.2 mph81%29.77 "Hg10 mi
5:50 am41 °FClear.2 mph76%29.74 "Hg10 mi
5:20 am39 °FOvercast.2 mph81%29.74 "HgN/A
4:50 am39 °FOvercast.2 mph81%29.74 "HgN/A
4:20 am39 °FPassing clouds.No wind81%29.74 "HgN/A
3:50 am37 °FPassing clouds.5 mph81%29.74 "HgN/A
3:20 am41 °FPassing clouds.5 mph76%29.71 "HgN/A
2:50 am43 °FOvercast.5 mph66%29.71 "HgN/A
2:20 am43 °FOvercast.5 mph66%29.68 "HgN/A
1:50 am43 °FPassing clouds.7 mph66%29.68 "HgN/A
1:20 am43 °FQuite cool.7 mph66%29.65 "HgN/A
12:50 am43 °FQuite cool.7 mph66%29.65 "HgN/A
12:20 am45 °FPassing clouds.6 mph61%29.65 "HgN/A
11:50 pm
Tue, Oct 22
45 °FPassing clouds.6 mph66%29.62 "HgN/A
11:20 pm46 °FCool.7 mph57%29.62 "HgN/A
10:50 pm46 °FPassing clouds.12 mph62%29.59 "HgN/A
10:20 pm48 °FPassing clouds.8 mph66%29.56 "HgN/A
9:50 pm46 °FClear.3 mph71%29.56 "Hg10 mi
9:20 pm46 °FClear.2 mph71%29.56 "Hg10 mi
8:50 pm46 °FPassing clouds.5 mph71%29.53 "HgN/A
8:20 pm46 °FPassing clouds.5 mph71%29.56 "HgN/A
7:50 pm46 °FPassing clouds.7 mph71%29.53 "HgN/A
7:20 pm45 °FClear.8 mph76%29.53 "Hg10 mi
6:50 pm46 °FPassing clouds.6 mph71%29.53 "HgN/A
6:20 pm45 °FClear.5 mph76%29.53 "Hg10 mi
5:50 pm45 °FClear.8 mph76%29.50 "Hg10 mi
5:20 pm45 °FPassing clouds.5 mph76%29.50 "HgN/A
4:50 pm45 °FSunny.5 mph76%29.50 "Hg10 mi
4:20 pm45 °FSunny.7 mph76%29.47 "Hg10 mi
3:50 pm45 °FSunny.6 mph76%29.47 "Hg10 mi
3:20 pm46 °FPassing clouds.3 mph71%29.47 "HgN/A
2:50 pm46 °FSunny.2 mph71%29.47 "Hg10 mi
2:20 pm45 °FPassing clouds.3 mph81%29.47 "HgN/A
1:50 pm45 °FPassing clouds.3 mph76%29.47 "HgN/A
1:20 pm45 °FPassing clouds.7 mph81%29.47 "HgN/A
12:50 pm46 °FPassing clouds.8 mph76%29.50 "HgN/A
12:20 pm43 °FPassing clouds.7 mph87%29.50 "HgN/A
11:50 am43 °FSunny.7 mph81%29.50 "Hg10 mi
11:20 am41 °FSunny.6 mph93%29.53 "Hg10 mi
10:50 am41 °FSunny.5 mph87%29.53 "Hg10 mi
10:20 am39 °FPassing clouds.6 mph93%29.56 "HgN/A
Weather by CustomWeather, © 2019

See weather overview